Year,Month,Day,Hour,Minute,Value (Times are PST for windspeed in km/hr)
2006,12,16,00,00,6.40
2006,12,16,00,01,6.40
2006,12,16,00,02,6.40
2006,12,16,00,03,6.40
2006,12,16,00,04,5.60
2006,12,16,00,05,3.70
2006,12,16,00,06,3.80
2006,12,16,00,07,1.70
2006,12,16,00,08,2.40
2006,12,16,00,09,2.30
2006,12,16,00,10,3.30
2006,12,16,00,11,4.50
2006,12,16,00,12,4.60
2006,12,16,00,13,4.30
2006,12,16,00,14,6.00
2006,12,16,00,15,6.10
2006,12,16,00,16,5.30
2006,12,16,00,17,4.70
2006,12,16,00,18,4.20
2006,12,16,00,19,4.40
2006,12,16,00,20,3.00
2006,12,16,00,21,3.00
2006,12,16,00,22,0.00
2006,12,16,00,23,0.10
2006,12,16,00,24,0.80
2006,12,16,00,25,0.40
2006,12,16,00,26,0.00
2006,12,16,00,27,0.60
2006,12,16,00,28,0.20
2006,12,16,00,29,1.10
2006,12,16,00,30,1.50
2006,12,16,00,31,2.40
2006,12,16,00,32,3.90
2006,12,16,00,33,3.80
2006,12,16,00,34,5.00
2006,12,16,00,35,6.80
2006,12,16,00,36,6.10
2006,12,16,00,37,5.60
2006,12,16,00,38,5.00
2006,12,16,00,39,5.00
2006,12,16,00,40,4.80
2006,12,16,00,41,3.60
2006,12,16,00,42,4.00
2006,12,16,00,43,3.40
2006,12,16,00,44,2.40
2006,12,16,00,45,0.10
2006,12,16,00,46,0.70
2006,12,16,00,47,0.10
2006,12,16,00,48,1.00
2006,12,16,00,49,0.00
2006,12,16,00,50,0.00
2006,12,16,00,51,0.20
2006,12,16,00,52,0.60
2006,12,16,00,53,1.00
2006,12,16,00,54,0.10
2006,12,16,00,55,0.20
2006,12,16,00,56,0.00
2006,12,16,00,57,0.20
2006,12,16,00,58,2.20
2006,12,16,00,59,0.90
2006,12,16,01,00,2.90
2006,12,16,01,01,2.50
2006,12,16,01,02,2.90
2006,12,16,01,03,2.80
2006,12,16,01,04,4.70
2006,12,16,01,05,4.60
2006,12,16,01,06,4.50
2006,12,16,01,07,3.70
2006,12,16,01,08,5.90
2006,12,16,01,09,5.00
2006,12,16,01,10,3.20
2006,12,16,01,11,3.20
2006,12,16,01,12,4.70
2006,12,16,01,13,5.90
2006,12,16,01,14,6.80
2006,12,16,01,15,5.50
2006,12,16,01,16,6.20
2006,12,16,01,17,5.30
2006,12,16,01,18,6.10
2006,12,16,01,19,4.00
2006,12,16,01,20,6.00
2006,12,16,01,21,5.90
2006,12,16,01,22,5.10
2006,12,16,01,23,4.80
2006,12,16,01,24,4.80
2006,12,16,01,25,4.80
2006,12,16,01,26,4.80
2006,12,16,01,27,4.80
2006,12,16,01,28,4.30
2006,12,16,01,29,4.50
2006,12,16,01,30,4.30
2006,12,16,01,31,5.10
2006,12,16,01,32,4.90
2006,12,16,01,33,3.70
2006,12,16,01,34,3.90
2006,12,16,01,35,2.40
2006,12,16,01,36,1.90
2006,12,16,01,37,2.10
2006,12,16,01,38,0.00
2006,12,16,01,39,0.00
2006,12,16,01,40,0.00
2006,12,16,01,41,0.00
2006,12,16,01,42,0.00
2006,12,16,01,43,0.00
2006,12,16,01,44,0.00
2006,12,16,01,45,0.80
2006,12,16,01,46,3.70
2006,12,16,01,47,4.30
2006,12,16,01,48,4.90
2006,12,16,01,49,5.10
2006,12,16,01,50,5.40
2006,12,16,01,51,3.10
2006,12,16,01,52,3.30
2006,12,16,01,53,3.20
2006,12,16,01,54,2.70
2006,12,16,01,55,1.90
2006,12,16,01,56,1.80
2006,12,16,01,57,2.90
2006,12,16,01,58,3.80
2006,12,16,01,59,3.50
2006,12,16,02,00,4.70
2006,12,16,02,01,4.80
2006,12,16,02,02,4.80
2006,12,16,02,03,4.60
2006,12,16,02,04,3.80
2006,12,16,02,05,4.60
2006,12,16,02,06,2.40
2006,12,16,02,07,3.40
2006,12,16,02,08,3.00
2006,12,16,02,09,2.90
2006,12,16,02,10,1.90
2006,12,16,02,11,1.80
2006,12,16,02,12,1.80
2006,12,16,02,13,2.30
2006,12,16,02,14,3.20
2006,12,16,02,15,0.10
2006,12,16,02,16,0.00
2006,12,16,02,17,0.00
2006,12,16,02,18,0.10
2006,12,16,02,19,2.10
2006,12,16,02,20,5.80
2006,12,16,02,21,0.60
2006,12,16,02,22,1.00
2006,12,16,02,23,2.00
2006,12,16,02,24,1.00
2006,12,16,02,25,1.80
2006,12,16,02,26,1.10
2006,12,16,02,27,0.40
2006,12,16,02,28,0.40
2006,12,16,02,29,1.20
2006,12,16,02,30,1.70
2006,12,16,02,31,1.40
2006,12,16,02,32,0.70
2006,12,16,02,33,2.80
2006,12,16,02,34,1.50
2006,12,16,02,35,1.00
2006,12,16,02,36,0.00
2006,12,16,02,37,0.00
2006,12,16,02,38,1.10
2006,12,16,02,39,0.50
2006,12,16,02,40,0.60
2006,12,16,02,41,0.20
2006,12,16,02,42,0.40
2006,12,16,02,43,1.10
2006,12,16,02,44,2.20
2006,12,16,02,45,2.60
2006,12,16,02,46,2.30
2006,12,16,02,47,1.80
2006,12,16,02,48,1.10
2006,12,16,02,49,0.70
2006,12,16,02,50,4.10
2006,12,16,02,51,4.20
2006,12,16,02,52,2.90
2006,12,16,02,53,1.30
2006,12,16,02,54,1.00
2006,12,16,02,55,0.20
2006,12,16,02,56,0.10
2006,12,16,02,57,0.90
2006,12,16,02,58,2.20
2006,12,16,02,59,0.90
2006,12,16,03,00,0.00
2006,12,16,03,01,1.90
2006,12,16,03,02,1.30
2006,12,16,03,03,1.40
2006,12,16,03,04,0.30
2006,12,16,03,05,1.20
2006,12,16,03,06,0.90
2006,12,16,03,07,2.20
2006,12,16,03,08,0.10
2006,12,16,03,09,0.90
2006,12,16,03,10,1.50
2006,12,16,03,11,1.00
2006,12,16,03,12,0.60
2006,12,16,03,13,1.90
2006,12,16,03,14,2.90
2006,12,16,03,15,2.90
2006,12,16,03,16,0.60
2006,12,16,03,17,1.80
2006,12,16,03,18,1.50
2006,12,16,03,19,0.10
2006,12,16,03,20,0.00
2006,12,16,03,21,0.20
2006,12,16,03,22,1.30
2006,12,16,03,23,2.30
2006,12,16,03,24,2.70
2006,12,16,03,25,2.10
2006,12,16,03,26,2.50
2006,12,16,03,27,3.70
2006,12,16,03,28,4.60
2006,12,16,03,29,3.90
2006,12,16,03,30,4.80
2006,12,16,03,31,5.10
2006,12,16,03,32,3.40
2006,12,16,03,33,3.80
2006,12,16,03,34,3.60
2006,12,16,03,35,2.90
2006,12,16,03,36,3.30
2006,12,16,03,37,4.70
2006,12,16,03,38,5.00
2006,12,16,03,39,4.80
2006,12,16,03,40,2.40
2006,12,16,03,41,2.70
2006,12,16,03,42,2.40
2006,12,16,03,43,3.10
2006,12,16,03,44,3.90
2006,12,16,03,45,3.30
2006,12,16,03,46,4.20
2006,12,16,03,47,3.40
2006,12,16,03,48,4.00
2006,12,16,03,49,3.30
2006,12,16,03,50,3.70
2006,12,16,03,51,4.20
2006,12,16,03,52,3.30
2006,12,16,03,53,4.30
2006,12,16,03,54,2.80
2006,12,16,03,55,2.40
2006,12,16,03,56,2.70
2006,12,16,03,57,3.70
2006,12,16,03,58,5.30
2006,12,16,03,59,5.40
2006,12,16,04,00,4.20
2006,12,16,04,01,4.00
2006,12,16,04,02,3.40
2006,12,16,04,03,2.60
2006,12,16,04,04,3.60
2006,12,16,04,05,0.40
2006,12,16,04,06,2.70
2006,12,16,04,07,1.20
2006,12,16,04,08,2.40
2006,12,16,04,09,7.00
2006,12,16,04,10,1.70
2006,12,16,04,11,2.90
2006,12,16,04,12,0.80
2006,12,16,04,13,0.90
2006,12,16,04,14,3.70
2006,12,16,04,15,2.40
2006,12,16,04,16,3.70
2006,12,16,04,17,4.80
2006,12,16,04,18,0.50
2006,12,16,04,19,0.40
2006,12,16,04,20,1.50
2006,12,16,04,21,4.30
2006,12,16,04,22,3.10
2006,12,16,04,23,1.20
2006,12,16,04,24,4.50
2006,12,16,04,25,4.70
2006,12,16,04,26,4.40
2006,12,16,04,27,4.70
2006,12,16,04,28,5.00
2006,12,16,04,29,5.80
2006,12,16,04,30,5.00
2006,12,16,04,31,3.90
2006,12,16,04,32,2.90
2006,12,16,04,33,3.00
2006,12,16,04,34,4.50
2006,12,16,04,35,2.40
2006,12,16,04,36,1.60
2006,12,16,04,37,0.10
2006,12,16,04,38,1.00
2006,12,16,04,39,2.20
2006,12,16,04,40,0.60
2006,12,16,04,41,1.60
2006,12,16,04,42,2.60
2006,12,16,04,43,1.40
2006,12,16,04,44,4.60
2006,12,16,04,45,3.70
2006,12,16,04,46,4.30
2006,12,16,04,47,1.10
2006,12,16,04,48,1.50
2006,12,16,04,49,4.10
2006,12,16,04,50,3.20
2006,12,16,04,51,3.20
2006,12,16,04,52,3.80
2006,12,16,04,53,3.30
2006,12,16,04,54,3.30
2006,12,16,04,55,0.40
2006,12,16,04,56,0.80
2006,12,16,04,57,8.10
2006,12,16,04,58,5.80
2006,12,16,04,59,4.40
2006,12,16,05,00,3.40
2006,12,16,05,01,4.60
2006,12,16,05,02,4.80
2006,12,16,05,03,4.80
2006,12,16,05,04,4.70
2006,12,16,05,05,3.50
2006,12,16,05,06,3.50
2006,12,16,05,07,6.20
2006,12,16,05,08,4.30
2006,12,16,05,09,2.70
2006,12,16,05,10,2.40
2006,12,16,05,11,4.60
2006,12,16,05,12,2.00
2006,12,16,05,13,2.80
2006,12,16,05,14,4.30
2006,12,16,05,15,7.70
2006,12,16,05,16,4.20
2006,12,16,05,17,3.00
2006,12,16,05,18,5.50
2006,12,16,05,19,5.70
2006,12,16,05,20,3.70
2006,12,16,05,21,2.90
2006,12,16,05,22,1.70
2006,12,16,05,23,2.40
2006,12,16,05,24,3.00
2006,12,16,05,25,1.80
2006,12,16,05,26,3.90
2006,12,16,05,27,3.50
2006,12,16,05,28,2.90
2006,12,16,05,29,2.80
2006,12,16,05,30,2.10
2006,12,16,05,31,5.50
2006,12,16,05,32,6.40
2006,12,16,05,33,6.40
2006,12,16,05,34,1.80
2006,12,16,05,35,3.40
2006,12,16,05,36,5.10
2006,12,16,05,37,5.50
2006,12,16,05,38,10.70
2006,12,16,05,39,4.90
2006,12,16,05,40,1.50
2006,12,16,05,41,1.60
2006,12,16,05,42,3.30
2006,12,16,05,43,3.60
2006,12,16,05,44,2.90
2006,12,16,05,45,4.60
2006,12,16,05,46,4.70
2006,12,16,05,47,0.70
2006,12,16,05,48,0.00
2006,12,16,05,49,1.90
2006,12,16,05,50,1.50
2006,12,16,05,51,2.90
2006,12,16,05,52,1.30
2006,12,16,05,53,4.10
2006,12,16,05,54,2.50
2006,12,16,05,55,3.10
2006,12,16,05,56,2.90
2006,12,16,05,57,0.30
2006,12,16,05,58,0.00
2006,12,16,05,59,1.80
2006,12,16,06,00,1.10
2006,12,16,06,01,1.70
2006,12,16,06,02,1.10
2006,12,16,06,03,0.20
2006,12,16,06,04,0.70
2006,12,16,06,05,0.70
2006,12,16,06,06,0.40
2006,12,16,06,07,0.60
2006,12,16,06,08,0.80
2006,12,16,06,09,5.10
2006,12,16,06,10,2.40
2006,12,16,06,11,3.20
2006,12,16,06,12,3.70
2006,12,16,06,13,3.80
2006,12,16,06,14,3.20
2006,12,16,06,15,2.80
2006,12,16,06,16,2.30
2006,12,16,06,17,0.60
2006,12,16,06,18,1.30
2006,12,16,06,19,1.70
2006,12,16,06,20,1.70
2006,12,16,06,21,2.80
2006,12,16,06,22,4.80
2006,12,16,06,23,3.80
2006,12,16,06,24,2.00
2006,12,16,06,25,4.50
2006,12,16,06,26,4.40
2006,12,16,06,27,4.80
2006,12,16,06,28,6.90
2006,12,16,06,29,2.90
2006,12,16,06,30,2.70
2006,12,16,06,31,4.30
2006,12,16,06,32,3.60
2006,12,16,06,33,6.60
2006,12,16,06,34,3.60
2006,12,16,06,35,3.10
2006,12,16,06,36,1.50
2006,12,16,06,37,3.80
2006,12,16,06,38,4.40
2006,12,16,06,39,3.40
2006,12,16,06,40,2.70
2006,12,16,06,41,6.00
2006,12,16,06,42,6.00
2006,12,16,06,43,6.40
2006,12,16,06,44,6.10
2006,12,16,06,45,2.80
2006,12,16,06,46,6.40
2006,12,16,06,47,7.30
2006,12,16,06,48,3.10
2006,12,16,06,49,6.90
2006,12,16,06,50,2.00
2006,12,16,06,51,0.50
2006,12,16,06,52,4.60
2006,12,16,06,53,3.70
2006,12,16,06,54,0.10
2006,12,16,06,55,0.20
2006,12,16,06,56,0.20
2006,12,16,06,57,3.10
2006,12,16,06,58,6.90
2006,12,16,06,59,1.60
2006,12,16,07,00,2.20
2006,12,16,07,01,1.60
2006,12,16,07,02,1.90
2006,12,16,07,03,2.00
2006,12,16,07,04,2.30
2006,12,16,07,05,2.00
2006,12,16,07,06,4.30
2006,12,16,07,07,1.90
2006,12,16,07,08,1.20
2006,12,16,07,09,2.10
2006,12,16,07,10,2.10
2006,12,16,07,11,1.80
2006,12,16,07,12,1.30
2006,12,16,07,13,0.40
2006,12,16,07,14,1.00
2006,12,16,07,15,3.20
2006,12,16,07,16,4.40
2006,12,16,07,17,1.40
2006,12,16,07,18,1.60
2006,12,16,07,19,2.20
2006,12,16,07,20,1.80
2006,12,16,07,21,0.70
2006,12,16,07,22,2.80
2006,12,16,07,23,1.70
2006,12,16,07,24,1.60
2006,12,16,07,25,4.40
2006,12,16,07,26,4.40
2006,12,16,07,27,2.20
2006,12,16,07,28,3.20
2006,12,16,07,29,4.70
2006,12,16,07,30,2.80
2006,12,16,07,31,0.80
2006,12,16,07,32,0.60
2006,12,16,07,33,2.40
2006,12,16,07,34,2.40
2006,12,16,07,35,3.00
2006,12,16,07,36,2.90
2006,12,16,07,37,2.90
2006,12,16,07,38,3.00
2006,12,16,07,39,4.70
2006,12,16,07,40,3.40
2006,12,16,07,41,4.00
2006,12,16,07,42,2.90
2006,12,16,07,43,2.30
2006,12,16,07,44,1.90
2006,12,16,07,45,3.90
2006,12,16,07,46,3.10
2006,12,16,07,47,5.20
2006,12,16,07,48,3.70
2006,12,16,07,49,3.40
2006,12,16,07,50,3.40
2006,12,16,07,51,4.90
2006,12,16,07,52,6.40
2006,12,16,07,53,4.70
2006,12,16,07,54,3.40
2006,12,16,07,55,2.00
2006,12,16,07,56,2.90
2006,12,16,07,57,3.20
2006,12,16,07,58,4.40
2006,12,16,07,59,6.40
2006,12,16,08,00,5.00
2006,12,16,08,01,5.30
2006,12,16,08,02,7.60
2006,12,16,08,03,7.50
2006,12,16,08,04,6.60
2006,12,16,08,05,3.90
2006,12,16,08,06,4.80
2006,12,16,08,07,5.30
2006,12,16,08,08,5.90
2006,12,16,08,09,5.20
2006,12,16,08,10,4.10
2006,12,16,08,11,5.30
2006,12,16,08,12,3.40
2006,12,16,08,13,4.10
2006,12,16,08,14,2.50
2006,12,16,08,15,3.10
2006,12,16,08,16,4.40
2006,12,16,08,17,3.70
2006,12,16,08,18,1.60
2006,12,16,08,19,2.50
2006,12,16,08,20,3.10
2006,12,16,08,21,5.40
2006,12,16,08,22,4.20
2006,12,16,08,23,7.70
2006,12,16,08,24,4.50
2006,12,16,08,25,5.20
2006,12,16,08,26,6.10
2006,12,16,08,27,4.10
2006,12,16,08,28,4.80
2006,12,16,08,29,7.10
2006,12,16,08,30,3.60
2006,12,16,08,31,2.50
2006,12,16,08,32,4.10
2006,12,16,08,33,3.00
2006,12,16,08,34,2.70
2006,12,16,08,35,5.00
2006,12,16,08,36,5.80
2006,12,16,08,37,7.30
2006,12,16,08,38,6.60
2006,12,16,08,39,5.00
2006,12,16,08,40,4.30
2006,12,16,08,41,5.50
2006,12,16,08,42,4.70
2006,12,16,08,43,4.80
2006,12,16,08,44,5.30
2006,12,16,08,45,3.60
2006,12,16,08,46,5.00
2006,12,16,08,47,4.30
2006,12,16,08,48,5.90
2006,12,16,08,49,6.40
2006,12,16,08,50,2.40
2006,12,16,08,51,3.30
2006,12,16,08,52,4.70
2006,12,16,08,53,3.40
2006,12,16,08,54,3.80
2006,12,16,08,55,7.00
2006,12,16,08,56,4.90
2006,12,16,08,57,3.50
2006,12,16,08,58,3.90
2006,12,16,08,59,5.10
2006,12,16,09,00,2.90
2006,12,16,09,01,3.70
2006,12,16,09,02,4.50
2006,12,16,09,03,4.10
2006,12,16,09,04,1.50
2006,12,16,09,05,1.20
2006,12,16,09,06,0.80
2006,12,16,09,07,1.80
2006,12,16,09,08,1.30
2006,12,16,09,09,0.40
2006,12,16,09,10,1.30
2006,12,16,09,11,3.50
2006,12,16,09,12,3.10
2006,12,16,09,13,3.40
2006,12,16,09,14,4.30
2006,12,16,09,15,4.30
2006,12,16,09,16,4.00
2006,12,16,09,17,4.60
2006,12,16,09,18,6.20
2006,12,16,09,19,3.50
2006,12,16,09,20,4.70
2006,12,16,09,21,5.40
2006,12,16,09,22,5.60
2006,12,16,09,23,5.90
2006,12,16,09,24,4.50
2006,12,16,09,25,5.00
2006,12,16,09,26,5.70
2006,12,16,09,27,5.50
2006,12,16,09,28,5.30
2006,12,16,09,29,4.80
2006,12,16,09,30,6.10
2006,12,16,09,31,7.40
2006,12,16,09,32,6.50
2006,12,16,09,33,5.20
2006,12,16,09,34,5.00
2006,12,16,09,35,4.20
2006,12,16,09,36,6.60
2006,12,16,09,37,5.50
2006,12,16,09,38,6.20
2006,12,16,09,39,7.20
2006,12,16,09,40,7.50
2006,12,16,09,41,7.20
2006,12,16,09,42,5.10
2006,12,16,09,43,5.10
2006,12,16,09,44,5.60
2006,12,16,09,45,4.50
2006,12,16,09,46,3.90
2006,12,16,09,47,3.60
2006,12,16,09,48,4.20
2006,12,16,09,49,3.90
2006,12,16,09,50,3.90
2006,12,16,09,51,3.70
2006,12,16,09,52,4.80
2006,12,16,09,53,5.00
2006,12,16,09,54,6.10
2006,12,16,09,55,5.00
2006,12,16,09,56,3.30
2006,12,16,09,57,3.70
2006,12,16,09,58,4.50
2006,12,16,09,59,3.60
2006,12,16,10,00,4.40
2006,12,16,10,01,4.10
2006,12,16,10,02,4.60
2006,12,16,10,03,6.10
2006,12,16,10,04,4.90
2006,12,16,10,05,5.00
2006,12,16,10,06,5.00
2006,12,16,10,07,6.60
2006,12,16,10,08,6.50
2006,12,16,10,09,6.20
2006,12,16,10,10,4.80
2006,12,16,10,11,4.10
2006,12,16,10,12,4.50
2006,12,16,10,13,4.80
2006,12,16,10,14,4.60
2006,12,16,10,15,3.50
2006,12,16,10,16,4.70
2006,12,16,10,17,2.30
2006,12,16,10,18,1.90
2006,12,16,10,19,3.70
2006,12,16,10,20,3.00
2006,12,16,10,21,4.40
2006,12,16,10,22,2.70
2006,12,16,10,23,2.70
2006,12,16,10,24,2.50
2006,12,16,10,25,3.90
2006,12,16,10,26,3.20
2006,12,16,10,27,4.10
2006,12,16,10,28,3.50
2006,12,16,10,29,3.30
2006,12,16,10,30,3.90
2006,12,16,10,31,3.60
2006,12,16,10,32,5.00
2006,12,16,10,33,4.50
2006,12,16,10,34,5.00
2006,12,16,10,35,5.40
2006,12,16,10,36,4.60
2006,12,16,10,37,4.10
2006,12,16,10,38,6.40
2006,12,16,10,39,7.30
2006,12,16,10,40,9.20
2006,12,16,10,41,6.20
2006,12,16,10,42,5.50
2006,12,16,10,43,3.90
2006,12,16,10,44,2.10
2006,12,16,10,45,2.90
2006,12,16,10,46,1.90
2006,12,16,10,47,5.10
2006,12,16,10,48,5.00
2006,12,16,10,49,5.60
2006,12,16,10,50,2.80
2006,12,16,10,51,2.70
2006,12,16,10,52,4.80
2006,12,16,10,53,4.90
2006,12,16,10,54,6.50
2006,12,16,10,55,4.70
2006,12,16,10,56,5.40
2006,12,16,10,57,5.20
2006,12,16,10,58,5.80
2006,12,16,10,59,4.80
2006,12,16,11,00,4.40
2006,12,16,11,01,5.40
2006,12,16,11,02,5.50
2006,12,16,11,03,2.40
2006,12,16,11,04,5.70
2006,12,16,11,05,3.80
2006,12,16,11,06,5.60
2006,12,16,11,07,3.10
2006,12,16,11,08,6.40
2006,12,16,11,09,5.50
2006,12,16,11,10,7.00
2006,12,16,11,11,7.40
2006,12,16,11,12,9.10
2006,12,16,11,13,5.90
2006,12,16,11,14,6.90
2006,12,16,11,15,5.40
2006,12,16,11,16,3.10
2006,12,16,11,17,2.00
2006,12,16,11,18,6.40
2006,12,16,11,19,8.30
2006,12,16,11,20,6.50
2006,12,16,11,21,5.10
2006,12,16,11,22,4.30
2006,12,16,11,23,6.00
2006,12,16,11,24,7.10
2006,12,16,11,25,4.80
2006,12,16,11,26,6.30
2006,12,16,11,27,7.70
2006,12,16,11,28,7.00
2006,12,16,11,29,3.80
2006,12,16,11,30,2.80
2006,12,16,11,31,3.60
2006,12,16,11,32,2.80
2006,12,16,11,33,3.60
2006,12,16,11,34,2.30
2006,12,16,11,35,2.10
2006,12,16,11,36,3.90
2006,12,16,11,37,1.60
2006,12,16,11,38,4.50
2006,12,16,11,39,3.60
2006,12,16,11,40,4.50
2006,12,16,11,41,3.30
2006,12,16,11,42,3.50
2006,12,16,11,43,6.20
2006,12,16,11,44,5.60
2006,12,16,11,45,5.80
2006,12,16,11,46,5.00
2006,12,16,11,47,2.40
2006,12,16,11,48,2.80
2006,12,16,11,49,2.90
2006,12,16,11,50,2.10
2006,12,16,11,51,2.80
2006,12,16,11,52,4.10
2006,12,16,11,53,5.00
2006,12,16,11,54,6.20
2006,12,16,11,55,5.60
2006,12,16,11,56,4.00
2006,12,16,11,57,4.50
2006,12,16,11,58,3.90
2006,12,16,11,59,5.30
2006,12,16,12,00,4.10
2006,12,16,12,01,3.10
2006,12,16,12,02,4.00
2006,12,16,12,03,3.60
2006,12,16,12,04,3.20
2006,12,16,12,05,5.40
2006,12,16,12,06,5.80
2006,12,16,12,07,2.70
2006,12,16,12,08,3.80
2006,12,16,12,09,6.70
2006,12,16,12,10,5.00
2006,12,16,12,11,4.00
2006,12,16,12,12,6.40
2006,12,16,12,13,4.90
2006,12,16,12,14,10.50
2006,12,16,12,15,11.30
2006,12,16,12,16,7.70
2006,12,16,12,17,5.50
2006,12,16,12,18,5.20
2006,12,16,12,19,6.20
2006,12,16,12,20,5.00
2006,12,16,12,21,5.70
2006,12,16,12,22,5.40
2006,12,16,12,23,4.30
2006,12,16,12,24,4.70
2006,12,16,12,25,4.00
2006,12,16,12,26,2.40
2006,12,16,12,27,4.50
2006,12,16,12,28,4.60
2006,12,16,12,29,3.50
2006,12,16,12,30,3.60
2006,12,16,12,31,2.70
2006,12,16,12,32,2.00
2006,12,16,12,33,3.60
2006,12,16,12,34,4.90
2006,12,16,12,35,8.20
2006,12,16,12,36,7.80
2006,12,16,12,37,8.10
2006,12,16,12,38,9.50
2006,12,16,12,39,6.70
2006,12,16,12,40,7.80
2006,12,16,12,41,9.30
2006,12,16,12,42,10.40
2006,12,16,12,43,8.20
2006,12,16,12,44,7.20
2006,12,16,12,45,8.60
2006,12,16,12,46,8.70
2006,12,16,12,47,8.70
2006,12,16,12,48,9.40
2006,12,16,12,49,7.50
2006,12,16,12,50,7.80
2006,12,16,12,51,5.50
2006,12,16,12,52,5.20
2006,12,16,12,53,6.90
2006,12,16,12,54,8.70
2006,12,16,12,55,9.20
2006,12,16,12,56,9.00
2006,12,16,12,57,7.20
2006,12,16,12,58,6.90
2006,12,16,12,59,7.00
2006,12,16,13,00,10.80
2006,12,16,13,01,10.70
2006,12,16,13,02,7.50
2006,12,16,13,03,4.70
2006,12,16,13,04,6.00
2006,12,16,13,05,7.40
2006,12,16,13,06,6.60
2006,12,16,13,07,8.10
2006,12,16,13,08,4.80
2006,12,16,13,09,3.60
2006,12,16,13,10,4.00
2006,12,16,13,11,7.80
2006,12,16,13,12,8.50
2006,12,16,13,13,6.20
2006,12,16,13,14,4.20
2006,12,16,13,15,6.70
2006,12,16,13,16,3.10
2006,12,16,13,17,2.50
2006,12,16,13,18,1.20
2006,12,16,13,19,3.10
2006,12,16,13,20,2.70
2006,12,16,13,21,3.40
2006,12,16,13,22,0.90
2006,12,16,13,23,0.20
2006,12,16,13,24,2.10
2006,12,16,13,25,2.00
2006,12,16,13,26,1.30
2006,12,16,13,27,1.70
2006,12,16,13,28,1.30
2006,12,16,13,29,1.30
2006,12,16,13,30,2.30
2006,12,16,13,31,3.40
2006,12,16,13,32,3.20
2006,12,16,13,33,5.90
2006,12,16,13,34,6.40
2006,12,16,13,35,6.40
2006,12,16,13,36,5.20
2006,12,16,13,37,5.00
2006,12,16,13,38,6.40
2006,12,16,13,39,7.20
2006,12,16,13,40,7.00
2006,12,16,13,41,6.00
2006,12,16,13,42,10.00
2006,12,16,13,43,8.90
2006,12,16,13,44,8.10
2006,12,16,13,45,8.30
2006,12,16,13,46,7.80
2006,12,16,13,47,9.10
2006,12,16,13,48,7.60
2006,12,16,13,49,5.50
2006,12,16,13,50,5.00
2006,12,16,13,51,8.30
2006,12,16,13,52,7.00
2006,12,16,13,53,6.20
2006,12,16,13,54,5.40
2006,12,16,13,55,3.40
2006,12,16,13,56,6.60
2006,12,16,13,57,4.70
2006,12,16,13,58,6.20
2006,12,16,13,59,6.10
2006,12,16,14,00,6.40
2006,12,16,14,01,4.50
2006,12,16,14,02,6.50
2006,12,16,14,03,5.00
2006,12,16,14,04,5.00
2006,12,16,14,05,7.80
2006,12,16,14,06,6.40
2006,12,16,14,07,5.30
2006,12,16,14,08,5.40
2006,12,16,14,09,4.30
2006,12,16,14,10,3.60
2006,12,16,14,11,1.70
2006,12,16,14,12,2.20
2006,12,16,14,13,2.10
2006,12,16,14,14,3.90
2006,12,16,14,15,3.60
2006,12,16,14,16,3.90
2006,12,16,14,17,4.10
2006,12,16,14,18,2.60
2006,12,16,14,19,3.10
2006,12,16,14,20,3.20
2006,12,16,14,21,3.20
2006,12,16,14,22,3.30
2006,12,16,14,23,4.80
2006,12,16,14,24,5.90
2006,12,16,14,25,5.30
2006,12,16,14,26,4.90
2006,12,16,14,27,6.40
2006,12,16,14,28,5.00
2006,12,16,14,29,2.20
2006,12,16,14,30,3.40
2006,12,16,14,31,3.80
2006,12,16,14,32,4.30
2006,12,16,14,33,6.80
2006,12,16,14,34,5.70
2006,12,16,14,35,5.60
2006,12,16,14,36,7.40
2006,12,16,14,37,5.00
2006,12,16,14,38,2.10
2006,12,16,14,39,3.60
2006,12,16,14,40,4.80
2006,12,16,14,41,5.90
2006,12,16,14,42,6.10
2006,12,16,14,43,4.90
2006,12,16,14,44,4.30
2006,12,16,14,45,4.90
2006,12,16,14,46,3.40
2006,12,16,14,47,5.70
2006,12,16,14,48,7.50
2006,12,16,14,49,4.80
2006,12,16,14,50,6.60
2006,12,16,14,51,5.10
2006,12,16,14,52,5.20
2006,12,16,14,53,3.40
2006,12,16,14,54,7.80
2006,12,16,14,55,6.80
2006,12,16,14,56,5.90
2006,12,16,14,57,7.10
2006,12,16,14,58,4.90
2006,12,16,14,59,5.30
2006,12,16,15,00,5.10
2006,12,16,15,01,7.80
2006,12,16,15,02,10.40
2006,12,16,15,03,6.40
2006,12,16,15,04,9.40
2006,12,16,15,05,8.70
2006,12,16,15,06,5.40
2006,12,16,15,07,3.20
2006,12,16,15,08,3.20
2006,12,16,15,09,6.10
2006,12,16,15,10,6.60
2006,12,16,15,11,6.70
2006,12,16,15,12,6.10
2006,12,16,15,13,5.30
2006,12,16,15,14,6.90
2006,12,16,15,15,6.10
2006,12,16,15,16,7.00
2006,12,16,15,17,6.10
2006,12,16,15,18,6.00
2006,12,16,15,19,4.60
2006,12,16,15,20,4.10
2006,12,16,15,21,4.80
2006,12,16,15,22,3.60
2006,12,16,15,23,3.20
2006,12,16,15,24,3.50
2006,12,16,15,25,5.10
2006,12,16,15,26,6.10
2006,12,16,15,27,4.80
2006,12,16,15,28,4.80
2006,12,16,15,29,4.80
2006,12,16,15,30,4.80
2006,12,16,15,31,4.80
2006,12,16,15,32,4.80
2006,12,16,15,33,4.20
2006,12,16,15,34,5.90
2006,12,16,15,35,5.40
2006,12,16,15,36,3.60
2006,12,16,15,37,2.20
2006,12,16,15,38,2.30
2006,12,16,15,39,3.80
2006,12,16,15,40,5.60
2006,12,16,15,41,4.80
2006,12,16,15,42,5.20
2006,12,16,15,43,7.10
2006,12,16,15,44,6.20
2006,12,16,15,45,9.90
2006,12,16,15,46,5.70
2006,12,16,15,47,6.60
2006,12,16,15,48,6.00
2006,12,16,15,49,6.40
2006,12,16,15,50,7.40
2006,12,16,15,51,6.20
2006,12,16,15,52,4.60
2006,12,16,15,53,6.00
2006,12,16,15,54,5.70
2006,12,16,15,55,4.40
2006,12,16,15,56,5.00
2006,12,16,15,57,5.00
2006,12,16,15,58,6.80
2006,12,16,15,59,6.00
2006,12,16,16,00,5.70
2006,12,16,16,01,7.90
2006,12,16,16,02,8.30
2006,12,16,16,03,8.70
2006,12,16,16,04,7.60
2006,12,16,16,05,9.10
2006,12,16,16,06,6.70
2006,12,16,16,07,6.50
2006,12,16,16,08,7.80
2006,12,16,16,09,7.50
2006,12,16,16,10,5.90
2006,12,16,16,11,7.40
2006,12,16,16,12,6.20
2006,12,16,16,13,6.00
2006,12,16,16,14,6.40
2006,12,16,16,15,5.70
2006,12,16,16,16,5.70
2006,12,16,16,17,5.80
2006,12,16,16,18,5.30
2006,12,16,16,19,7.80
2006,12,16,16,20,6.80
2006,12,16,16,21,6.10
2006,12,16,16,22,6.60
2006,12,16,16,23,7.40
2006,12,16,16,24,6.70
2006,12,16,16,25,5.60
2006,12,16,16,26,4.50
2006,12,16,16,27,5.70
2006,12,16,16,28,5.90
2006,12,16,16,29,8.30
2006,12,16,16,30,6.20
2006,12,16,16,31,5.50
2006,12,16,16,32,5.60
2006,12,16,16,33,3.90
2006,12,16,16,34,3.10
2006,12,16,16,35,4.10
2006,12,16,16,36,7.10
2006,12,16,16,37,5.20
2006,12,16,16,38,6.80
2006,12,16,16,39,7.40
2006,12,16,16,40,6.20
2006,12,16,16,41,3.40
2006,12,16,16,42,5.40
2006,12,16,16,43,6.40
2006,12,16,16,44,6.40
2006,12,16,16,45,6.40
2006,12,16,16,46,6.40
2006,12,16,16,47,5.10
2006,12,16,16,48,5.40
2006,12,16,16,49,3.00
2006,12,16,16,50,6.00
2006,12,16,16,51,5.60
2006,12,16,16,52,6.60
2006,12,16,16,53,5.30
2006,12,16,16,54,4.80
2006,12,16,16,55,5.00
2006,12,16,16,56,3.60
2006,12,16,16,57,5.80
2006,12,16,16,58,6.70
2006,12,16,16,59,5.20
2006,12,16,17,00,4.80
2006,12,16,17,01,6.50
2006,12,16,17,02,5.10
2006,12,16,17,03,5.00
2006,12,16,17,04,3.40
2006,12,16,17,05,3.20
2006,12,16,17,06,3.20
2006,12,16,17,07,4.70
2006,12,16,17,08,6.20
2006,12,16,17,09,8.30
2006,12,16,17,10,5.80
2006,12,16,17,11,6.40
2006,12,16,17,12,6.40
2006,12,16,17,13,6.40
2006,12,16,17,14,6.40
2006,12,16,17,15,7.00
2006,12,16,17,16,6.90
2006,12,16,17,17,9.10
2006,12,16,17,18,6.90
2006,12,16,17,19,6.20
2006,12,16,17,20,4.00
2006,12,16,17,21,3.30
2006,12,16,17,22,3.50
2006,12,16,17,23,3.70
2006,12,16,17,24,4.00
2006,12,16,17,25,3.80
2006,12,16,17,26,3.30
2006,12,16,17,27,2.20
2006,12,16,17,28,3.70
2006,12,16,17,29,3.40
2006,12,16,17,30,5.30
2006,12,16,17,31,6.50
2006,12,16,17,32,6.40
2006,12,16,17,33,6.00
2006,12,16,17,34,6.50
2006,12,16,17,35,4.00
2006,12,16,17,36,6.50
2006,12,16,17,37,3.60
2006,12,16,17,38,5.90
2006,12,16,17,39,6.30
2006,12,16,17,40,10.40
2006,12,16,17,41,8.90
2006,12,16,17,42,8.30
2006,12,16,17,43,5.60
2006,12,16,17,44,5.20
2006,12,16,17,45,8.10
2006,12,16,17,46,9.30
2006,12,16,17,47,9.20
2006,12,16,17,48,7.00
2006,12,16,17,49,8.70
2006,12,16,17,50,7.70
2006,12,16,17,51,8.90
2006,12,16,17,52,6.60
2006,12,16,17,53,10.10
2006,12,16,17,54,8.50
2006,12,16,17,55,6.90
2006,12,16,17,56,4.50
2006,12,16,17,57,5.50
2006,12,16,17,58,7.00
2006,12,16,17,59,5.00
2006,12,16,18,00,6.30
2006,12,16,18,01,6.00
2006,12,16,18,02,3.40
2006,12,16,18,03,4.00
2006,12,16,18,04,8.00
2006,12,16,18,05,8.10
2006,12,16,18,06,8.10